CAPE
0 0 0 0 20 56 75 38 86 240 308 362 238 217 485 426 232 137 273 441 184 208 708 891 713 1348 1883 1832 2077 1904 1706 1771 1957 1954 1936 1853 1632 1325 1088 1733 1613 1393 928
0 0 0 0 3 6 21 18 52 164 223 188 289 281 362 394 285 223 227 232 219 403 644 747 684 1079 1534 1110 1283 2021 2235 2080 2047 2102 2152 1956 1817 1909 1711 1309 1206 1483 1313
0 0 0 0 0 0 0 47 54 176 152 201 238 170 105 214 309 234 197 93 232 671 710 755 888 1080 1185 856 882 2081 2512 2325 2336 2303 1982 1829 1658 1807 2015 1920 1560 1422 1330
0 0 1 1 1 0 0 0 0 41 196 166 114 69 51 275 252 163 174 180 165 433 790 763 693 747 820 952 1121 1488 2036 2261 2315 2174 2246 2161 1903 1870 1781 1868 1753 1428 1564
3 0 21 12 0 0 40 46 73 106 136 148 100 66 91 106 73 320 147 250 394 540 554 737 509 549 772 1205 1180 1439 1665 1987 2077 2011 1986 1939 1968 1971 1706 1566 1670 1617 1489
124 97 102 57 11 9 26 176 90 141 212 117 60 15 181 255 272 174 180 171 200 286 329 374 443 707 1113 924 869 1097 1283 1548 1904 1951 1893 1863 1938 1823 1853 1453 1328 1401 1493
399 377 289 232 156 97 66 125 155 128 97 98 45 45 74 164 165 147 48 2 19 125 184 270 248 191 326 675 1268 1051 830 1412 1867 1971 2089 1850 1552 1596 1499 1337 1252 1305 1339
503 400 417 278 279 188 127 124 138 120 56 91 45 45 3 35 45 75 51 57 37 62 83 142 142 20 149 507 777 1131 1203 890 1123 1393 1484 1619 1667 1516 1412 1128 1098 1078 1182
294 245 321 367 330 258 239 85 98 86 44 31 71 30 55 24 0 17 34 30 1 0 13 10 0 0 14 128 293 345 644 847 1315 760 846 1096 1176 1205 1187 1214 1083 924 970
268 596 642 533 506 389 397 416 303 131 82 92 52 26 64 40 0 22 11 0 3 0 0 0 0 0 8 114 233 366 451 744 1193 1587 645 750 1000 1192 1061 1178 1232 1103 957
316 537 877 827 734 638 601 618 534 182 135 117 37 30 56 121 110 99 20 7 3 12 16 0 4 24 4 5 182 222 182 528 630 1289 1420 706 871 1346 1214 1180 1157 1151 1166
818 957 1110 1181 989 842 704 538 470 344 164 195 126 80 57 78 200 170 65 8 100 90 99 13 2 18 24 147 52 112 207 292 396 567 1166 1164 865 943 1117 1236 1197 1175 1239
881 952 1180 1035 690 551 519 607 336 313 245 245 196 122 180 145 166 149 99 174 154 140 221 209 118 63 87 5 0 0 105 146 196 264 452 1026 1274 1086 1132 1280 1154 1224 1363
686 812 920 954 757 445 312 365 356 339 304 336 280 435 476 483 420 493 274 260 211 239 252 193 265 148 73 38 8 0 9 27 66 42 339 961 1175 1154 1107 1148 1232 1286 1150
875 537 598 511 555 423 280 210 102 53 47 57 215 350 486 538 651 480 451 328 206 92 65 98 226 131 108 76 13 16 0 9 27 0 19 409 726 938 1067 1005 1003 1135 1240
369 421 396 431 316 220 95 2 0 2 0 3 109 109 230 309 344 70 91 36 12 23 0 0 0 0 0 0 0 0 21 88 9 0 7 287 632 468 496 646 730 852 1089
367 125 96 66 33 27 0 0 1 0 0 5 30 76 134 100 50 13 0 0 0 0 0 0 0 0 0 0 0 0 0 0 48 64 0 45 343 462 492 410 426 524 711
273 243 67 7 0 0 0 0 0 1 49 5 27 52 54 55 22 0 3 0 0 0 0 0 0 0 0 0 0 0 0 0 0 81 187 58 124 221 356 347 330 251 373
420 324 164 45 32 0 0 4 37 15 53 37 0 0 15 56 54 65 66 53 45 40 3 0 0 0 0 0 0 0 0 0 0 0 60 155 92 61 124 205 199 146 160
4 0 0 0 0 0 0 0 0 0 0 0 2 14 1 0 6 16 26 16 10 11 8 3 0 0 0 0 0 0 0 0 0 0 0 0 178 217 198 214 124 70 90
48 40 84 51 0 0 0 0 0 0 0 0 0 0 0 0 0 0 0 0 0 0 0 0 0 0 0 0 0 0 0 0 0 0 0 0 7 23 207 154 97 61 61
0 0 0 0 0 0 0 0 0 0 0 0 0 0 0 0 0 0 0 0 0 0 0 0 1 4 0 0 0 0 0 0 0 0 0 0 0 0 0 1 187 177 89
0 0 0 0 0 0 0 0 0 0 0 0 0 0 0 0 0 0 0 0 0 0 0 0 0 0 2 0 0 0 0 0 0 0 0 0 0 0 0 0 0 0 0
0 0 0 0 0 0 0 0 0 0 0 0 0 0 0 0 0 0 0 0 0 0 0 0 0 0 0 0 0 0 0 0 0 0 0 0 0 0 0 0 0 0 0
0 0 0 0 0 0 0 0 0 0 0 0 0 0 0 0 0 0 0 0 0 0 0 0 0 0 0 0 0 0 0 0 0 0 0 0 0 0 0 0 0 0 0
0 0 0 0 0 0 0 0 0 0 0 0 0 0 0 0 0 0 0 0 0 0 0 0 0 0 0 0 0 0 0 0 0 0 0 0 0 0 3 0 0 0 0
CIN
0 0 0 0 -51 -52 -65 -96 -69 -31 -33 -32 -39 -53 -36 -52 -87 -147 -118 -72 -109 -102 -115 -86 -73 -36 -1 -1 -2 -12 -25 -7 0 0 0 0 0 -9 -20 0 -2 -2 -6
0 0 0 0 -30 -87 -70 -75 -46 -30 -34 -36 -22 -33 -29 -52 -57 -89 -121 -76 -75 -91 -75 -74 -64 -33 -6 -10 -6 -6 -4 -6 -2 0 -1 -2 -3 -1 -2 -8 -7 -2 -2
0 0 0 0 0 0 0 -37 -29 -37 -54 -45 -37 -40 -57 -50 -45 -64 -125 -115 -82 -64 -64 -61 -51 -40 -15 -20 -13 -1 0 -1 -2 -1 -5 -7 -8 -3 -1 0 -4 -4 -3
0 0 -29 -19 -19 0 0 0 0 -42 -34 -40 -42 -59 -82 -63 -63 -59 -92 -106 -113 -71 -58 -44 -39 -34 -33 -32 -19 -12 -7 -4 -3 -8 -2 -2 -5 -3 -2 -1 -1 -4 -1
-64 0 -89 -66 0 0 -46 -34 -40 -44 -42 -30 -31 -47 -62 -71 -69 -41 -66 -73 -64 -61 -44 -38 -15 -17 -27 -35 -40 -24 -15 -10 -10 -13 -15 -20 -9 -2 -5 -4 -1 -2 -2
-88 -84 -66 -77 -114 -96 -48 -28 -32 -45 -41 -20 -24 -52 -47 -47 -57 -65 -67 -68 -76 -89 -95 -88 -67 -48 -13 -19 -27 -34 -21 -15 -14 -16 -16 -22 -20 -17 -5 -10 -9 -5 -2
-23 -33 -55 -69 -82 -100 -68 -40 -38 -33 -32 -24 -23 -39 -48 -48 -58 -86 -122 -30 -125 -104 -92 -90 -98 -126 -118 -77 -44 -33 -36 -15 -21 -17 -12 -24 -32 -30 -30 -27 -21 -11 -7
-31 -56 -51 -56 -54 -68 -56 -45 -30 -23 -25 -18 -19 -40 -82 -77 -114 -125 -137 -113 -124 -121 -133 -101 -121 -175 -167 -131 -123 -66 -26 -33 -21 -33 -43 -43 -35 -32 -37 -53 -42 -33 -17
-106 -108 -93 -72 -62 -67 -56 -64 -42 -21 -16 -32 -36 -31 -29 -47 0 -109 -118 -127 -137 0 -207 -93 0 0 -136 -187 -169 -155 -103 -61 -42 -36 -47 -54 -53 -51 -44 -46 -48 -61 -57
-137 -83 -70 -63 -63 -59 -61 -35 -28 -37 -30 -30 -54 -77 -45 -49 0 -27 -88 0 -168 -33 0 -6 0 0 -243 -196 -175 -130 -131 -108 -85 -63 -38 -51 -52 -59 -61 -53 -42 -48 -62
-144 -87 -54 -45 -48 -34 -36 -37 -25 -46 -43 -39 -56 -50 -52 -33 -54 -45 -39 -60 -94 -117 -169 0 -171 -208 -99 -269 -179 -191 -186 -128 -124 -88 -34 -47 -40 -45 -63 -70 -60 -50 -41
-63 -53 -30 -23 -34 -35 -24 -35 -42 -51 -66 -48 -56 -68 -63 -41 -39 -52 -61 -75 -38 -49 -86 -151 -61 -129 -185 -133 -164 -199 -155 -149 -139 -117 -72 -48 -54 -40 -45 -58 -58 -61 -57
-46 -34 -23 -23 -21 -22 -23 -25 -48 -33 -45 -66 -69 -75 -64 -60 -43 -66 -92 -54 -73 -77 -62 -82 -117 -152 -156 -240 0 0 -151 -155 -181 -173 -130 -74 -65 -48 -43 -49 -60 -55 -52
-38 -31 -30 -28 -32 -57 -38 -46 -76 -51 -51 -33 -30 -82 -57 -35 -29 -24 -38 -22 -37 -76 -75 -50 -73 -98 -129 -184 -218 0 -240 -205 -212 -227 -129 -104 -94 -62 -45 -50 -53 -53 -58
-34 -72 -67 -62 -51 -69 -64 -71 -77 -91 -146 -130 -65 -60 -38 -28 -25 -26 -33 -22 -12 -65 -108 -104 -43 -84 -75 -91 -125 -180 -68 -197 -169 0 -217 -140 -115 -84 -62 -54 -45 -49 -49
-123 -92 -76 -71 -70 -59 -72 -50 0 -63 0 -74 -70 -57 -13 -28 -37 -86 -70 -43 -62 -38 0 0 0 0 0 0 0 0 -104 -104 -186 -39 -103 -91 -86 -94 -84 -65 -56 -54 -47
-95 -144 -162 -145 -127 -27 0 0 -32 0 0 -74 -98 -75 -22 -32 -41 -69 0 0 0 0 0 0 0 0 0 0 0 0 0 0 -195 -124 -17 -92 -68 -81 -83 -111 -117 -91 -68
-107 -88 -156 -191 0 0 0 0 -7 -7 -44 -83 -65 -19 -29 -20 -50 0 -22 0 0 0 0 0 0 0 0 0 0 0 0 0 -2 -83 -65 -58 -68 -80 -89 -92 -129 -137 -124
-62 -62 -87 -107 -82 0 0 -16 -33 -21 -7 -10 0 0 -13 -17 -29 -55 -35 -26 -27 -27 -23 -4 0 0 0 0 0 0 0 0 0 0 -81 -81 -97 -110 -110 -106 -138 -163 -176
-158 0 0 0 0 0 0 0 0 0 0 0 -10 -7 -1 0 -37 -88 -44 -29 -41 -37 -60 -14 0 0 0 0 0 0 0 0 0 0 0 0 -67 -55 -66 -105 -156 -230 -218
-228 -244 -138 -160 0 0 0 0 0 0 0 0 0 0 0 0 0 0 0 0 0 0 0 0 0 0 0 0 0 0 0 0 0 0 0 -1 -45 -27 -93 -98 -167 -185 -202
0 0 0 0 0 0 0 0 0 0 0 0 0 0 0 0 0 0 0 0 0 0 0 0 -9 -3 0 0 0 0 0 0 0 0 0 0 0 0 0 -27 -65 -86 -116
0 0 0 0 0 0 0 0 0 0 0 0 0 0 0 0 0 0 0 0 0 0 0 0 0 0 -2 0 0 0 0 0 0 0 0 0 0 0 0 0 0 0 0
0 0 0 0 0 0 0 0 0 0 0 0 0 0 0 0 0 0 0 0 0 0 0 0 0 0 0 0 0 0 0 0 0 0 0 0 0 0 0 0 0 0 0
0 0 0 0 0 0 0 0 0 0 0 0 0 0 0 0 0 0 0 0 0 0 0 0 0 0 0 0 0 0 0 0 0 0 0 0 0 0 0 0 0 0 0
0 0 0 0 0 0 0 0 0 0 0 0 0 0 0 0 0 0 0 0 0 0 0 0 0 0 0 0 0 0 0 0 0 0 0 0 0 0 0 0 0 0 0
Wind_Speed
9 12 15 16 15 17 18 10 10 8 10 12 12 10 11 16 15 15 14 4 22 24 17 20 23 25 25 24 24 23 21 22 23 22 20 21 24 25 25 24 24 24 23
14 14 14 15 18 12 9 6 8 7 8 9 12 8 7 9 17 17 14 15 18 20 19 19 22 23 26 26 26 24 20 25 26 24 24 24 24 26 27 26 25 25 24
15 13 13 17 14 11 18 7 6 6 6 6 10 4 3 9 9 17 17 18 20 23 21 20 20 21 23 27 27 27 24 24 26 26 26 26 26 27 28 27 27 26 25
15 14 13 13 12 8 3 5 8 6 8 7 13 8 12 10 3 9 14 14 17 18 23 23 22 22 21 23 27 28 27 26 27 28 29 28 28 28 28 28 28 28 27
13 12 12 13 11 9 4 3 7 4 9 3 9 5 8 15 28 2 12 8 14 13 16 19 22 23 24 25 27 30 30 29 29 29 30 30 30 29 29 29 29 29 28
12 11 11 14 12 8 5 4 4 2 5 16 13 19 17 16 2 4 3 7 9 9 8 10 9 24 28 27 27 28 31 31 30 30 32 32 32 31 30 30 30 30 29
10 9 12 12 10 8 7 6 6 7 8 9 10 18 25 9 12 7 8 6 6 8 9 10 8 16 22 28 30 29 30 31 31 32 33 33 33 32 31 31 31 30 30
12 10 11 12 11 9 5 4 3 7 16 5 11 17 23 18 15 12 7 7 10 12 16 9 10 17 20 23 23 27 31 32 32 32 33 33 34 34 33 33 32 31 31
11 9 10 9 8 7 5 3 3 5 13 10 5 13 22 16 17 17 8 4 20 20 19 29 26 24 23 24 27 27 29 31 34 35 34 32 34 34 34 35 33 33 33
11 8 5 5 3 3 3 3 5 4 4 7 9 4 21 17 15 16 16 16 12 20 11 12 21 29 29 28 31 31 32 28 32 34 36 33 33 34 35 35 35 34 34
9 7 5 2 4 4 7 10 10 9 9 6 4 11 15 14 11 14 17 17 18 16 9 13 16 30 31 32 33 31 33 29 30 34 36 37 34 33 36 35 34 33 33
11 6 3 2 4 9 11 13 12 11 6 6 7 4 10 15 13 11 13 14 16 16 8 10 9 9 21 31 33 34 33 30 31 30 35 37 38 36 36 36 36 34 34
3 3 4 2 4 14 18 16 21 22 19 13 2 16 12 14 5 9 10 13 15 17 17 12 8 7 5 25 29 31 35 34 30 32 34 38 37 37 37 37 36 35 34
2 5 8 9 9 11 6 11 18 19 23 24 24 19 20 9 10 9 7 12 18 17 18 15 12 7 7 24 5 30 28 34 31 34 34 37 38 39 38 39 39 39 36
8 15 15 14 11 10 6 7 9 17 23 24 23 27 23 21 18 20 11 13 15 21 22 20 14 15 15 10 16 27 29 33 34 33 34 32 36 39 40 40 41 41 39
19 19 18 16 14 11 11 11 8 16 18 22 23 25 26 23 17 16 16 16 17 18 20 19 21 24 26 28 28 28 24 33 36 36 35 34 35 39 41 41 42 43 42
20 19 18 17 17 15 14 13 12 12 11 3 23 26 28 18 17 17 19 18 20 22 25 26 24 28 30 32 33 31 30 30 34 36 36 38 39 39 40 41 43 44 45
20 20 19 17 18 18 17 13 11 9 17 6 11 18 15 14 17 20 21 23 24 25 26 32 31 32 34 34 32 33 33 30 31 35 38 38 38 39 39 39 41 41 44
21 20 19 19 20 20 19 17 15 13 14 11 9 11 17 16 19 19 26 27 27 27 29 33 37 36 35 33 32 33 34 34 32 31 33 39 41 40 40 38 33 35 36
21 22 21 21 20 20 20 19 18 17 15 16 17 18 21 22 24 25 27 29 29 30 31 37 40 39 36 32 33 35 37 34 35 34 35 35 38 37 34 33 36 35 34
22 22 21 20 20 20 20 20 20 20 20 21 21 23 23 24 25 26 28 31 31 31 34 35 37 38 37 37 37 35 37 38 37 34 32 30 28 30 32 34 34 34 34
22 22 22 21 20 20 20 21 21 22 23 24 25 26 26 27 28 30 32 33 33 34 36 36 37 39 39 37 36 37 34 34 35 28 31 37 33 36 34 31 32 33 32
23 23 23 22 22 21 22 23 22 22 22 22 23 25 27 27 28 30 32 34 35 36 35 36 39 39 39 35 35 37 36 36 36 36 37 40 37 39 38 38 39 38 37
24 23 23 23 23 21 20 21 21 22 23 23 25 26 27 27 29 32 35 38 38 37 38 38 38 37 36 36 36 37 40 40 40 38 35 44 37 41 40 41 43 43 43
24 24 23 24 24 24 21 20 20 22 24 25 27 29 29 32 33 36 39 41 42 41 38 40 41 41 41 41 41 41 42 43 47 43 38 41 40 42 41 43 42 43 45
22 23 24 25 27 25 23 20 19 22 24 26 27 29 31 34 37 39 42 43 46 44 43 44 43 43 43 42 43 42 42 43 43 45 37 37 38 37 40 39 38 38 35
Wind_Direction
144 167 176 177 177 187 199 154 170 150 164 173 173 167 160 178 178 174 173 13 236 197 172 183 191 199 199 194 194 189 184 191 198 193 184 190 207 225 234 236 232 229 234
168 173 168 174 188 163 153 116 155 145 152 164 171 141 140 155 186 188 175 161 171 181 180 181 190 199 204 200 201 194 184 196 201 201 201 201 204 216 226 225 228 229 235
171 161 159 185 166 157 196 136 99 84 118 108 159 104 139 173 156 188 176 173 183 193 187 186 186 191 196 201 201 199 193 195 202 203 206 208 214 219 222 219 222 224 226
179 171 168 174 172 158 108 157 171 149 156 135 192 175 190 180 50 157 170 168 177 181 193 198 193 192 195 194 199 201 201 201 202 207 213 215 218 221 223 219 220 224 227
169 166 171 179 174 161 68 93 157 146 173 87 185 160 169 202 235 80 165 158 170 170 178 192 200 207 204 204 203 207 209 205 206 207 213 216 217 220 223 221 223 225 222
166 163 169 182 174 149 121 103 154 95 8 332 344 217 210 196 83 4 18 329 321 328 329 324 315 252 222 216 208 209 213 211 209 210 215 218 219 218 219 222 224 223 220
153 157 170 175 160 161 156 36 18 348 346 353 1 327 242 164 180 163 339 354 330 307 318 321 327 303 280 253 235 210 214 216 213 215 216 217 219 216 217 219 223 222 220
164 157 167 173 175 170 143 84 41 347 322 2 348 326 288 311 325 332 343 338 321 314 295 306 307 295 294 284 278 259 227 224 220 217 213 214 217 219 218 220 219 222 220
166 160 164 160 162 155 159 128 103 176 193 325 2 329 287 323 323 321 7 53 303 308 299 264 267 275 281 280 267 269 257 232 227 223 220 212 216 218 220 224 220 222 224
168 153 136 138 132 106 95 71 55 104 92 157 337 53 292 305 337 328 338 349 356 309 346 303 278 266 271 277 261 250 252 268 237 223 222 218 215 215 218 220 224 225 223
162 151 138 65 6 9 358 2 20 43 104 74 53 339 320 324 337 333 335 343 342 326 42 321 307 260 262 261 238 263 247 265 263 244 225 220 217 214 219 215 215 216 216
190 157 114 84 0 340 341 344 353 3 51 107 121 76 329 314 332 353 355 356 351 351 22 20 19 157 205 243 245 262 256 268 264 261 236 222 218 217 219 218 218 215 215
88 128 46 50 19 356 332 355 324 315 324 333 33 182 161 170 14 8 6 354 350 332 327 1 99 107 106 224 267 274 252 257 268 261 251 225 217 216 219 218 216 214 213
315 13 20 17 21 2 14 358 336 328 314 297 284 293 287 196 149 146 21 349 320 324 325 346 3 134 162 289 183 278 273 255 270 261 259 238 220 219 220 223 224 222 215
14 5 6 9 23 32 23 26 356 338 299 310 303 275 280 283 296 299 333 339 336 315 318 325 351 355 350 360 221 276 272 264 258 259 256 260 244 236 228 226 226 225 221
359 0 3 7 12 19 10 9 11 322 319 308 294 284 276 283 299 314 325 325 327 325 322 332 324 314 314 306 276 267 246 266 253 258 257 260 257 247 242 236 233 229 223
6 6 8 11 11 15 14 13 12 356 338 316 283 277 273 309 322 323 319 321 319 314 309 311 318 311 307 300 289 286 286 269 269 261 260 259 253 254 251 251 248 241 228
11 14 19 23 17 19 16 22 29 29 10 24 292 291 310 321 319 322 319 314 313 309 303 296 300 305 304 301 299 288 286 286 271 254 252 255 263 262 262 261 257 256 248
23 24 22 21 18 18 19 19 21 16 9 13 1 322 317 321 323 318 309 310 311 311 302 295 295 298 302 300 298 294 287 281 279 277 270 258 256 262 263 265 269 266 261
15 14 13 13 14 12 9 6 2 357 353 344 332 327 309 312 318 318 310 306 310 310 306 294 291 297 297 299 296 292 282 282 279 280 273 273 262 266 276 272 269 268 265
8 8 8 10 10 8 6 4 359 349 342 332 325 322 320 318 316 316 311 306 310 311 305 302 297 296 292 288 288 294 288 280 277 282 282 284 287 281 277 272 272 271 268
1 360 359 359 358 356 353 350 346 341 335 328 322 320 320 319 317 314 310 309 310 309 303 299 295 290 290 293 291 288 290 290 284 289 285 277 283 277 278 279 277 274 275
352 352 352 351 349 348 345 342 342 342 339 337 333 328 323 321 320 317 314 311 307 303 303 298 291 289 289 295 294 288 287 286 285 286 283 278 281 276 276 274 272 273 272
349 349 349 349 348 348 349 346 344 340 338 335 331 329 326 324 322 318 314 308 306 304 301 298 294 295 297 295 293 292 288 287 285 285 288 276 284 278 279 276 273 270 270
345 345 346 347 346 344 343 344 344 340 336 332 328 325 322 318 317 315 312 307 303 301 302 297 293 291 290 289 288 289 287 286 281 280 284 281 280 279 279 277 277 274 271
350 349 345 345 344 345 346 348 344 339 333 330 328 326 323 319 315 313 310 305 299 298 299 296 293 291 290 289 287 285 285 284 283 281 285 281 280 282 281 279 277 276 275